Reflectivity
-18 17 15 -6 -20 -4 -18 -10 -20 4 -5 -20 -1 24 33 22 25 27 15 31 27 12 1 -16 1 11 -2 5 -4 -12 -15 -20 -11 4 -13 -20 -20 -20 -20 -20 -20 -20 -20
-19 2 13 2 7 9 -20 -20 -20 -2 21 16 8 32 30 24 20 27 24 -3 -18 -9 -20 -5 -3 -20 -20 -1 -0 10 8 8 2 -20 -20 -20 -20 -20 -20 -20 -20 -20 -20
13 7 -6 -4 18 13 -17 -0 4 15 16 19 13 24 35 28 32 25 20 -14 -2 7 -4 3 -14 -7 3 -0 4 24 -2 -3 -3 -20 -20 -20 -20 -20 -20 -20 -20 -20 -20
13 5 -6 -16 20 2 11 -6 -1 -2 13 10 23 21 22 33 33 28 25 25 1 7 -5 -18 -3 6 -10 3 12 4 -12 -8 -20 -20 -13 -14 -20 -20 -20 -20 -20 -20 -20
9 -9 -11 -14 28 26 17 11 5 16 20 17 18 33 28 28 27 30 28 16 6 9 6 -20 -4 13 -0 11 -12 -18 -18 -20 -18 -15 -17 -20 -20 -20 -20 -20 -20 -20 -20
8 -17 4 23 21 29 31 21 19 23 21 27 32 24 29 26 31 23 1 -2 -16 -20 2 11 -1 18 4 -20 -20 -20 -9 12 8 -19 -20 -20 -20 -20 -20 -20 -20 -20 -20
-3 -12 3 12 37 26 17 27 28 25 11 32 26 27 28 32 22 22 28 20 16 15 11 20 9 -8 -20 -9 5 8 4 -17 -20 -20 -20 -20 -20 -20 -20 -20 -20 -20 -20
10 3 11 34 17 16 17 23 33 25 18 19 16 21 23 24 26 22 25 24 21 10 -3 -7 -4 6 8 -3 4 5 -20 -20 -20 -20 -20 -20 -20 -20 -20 -20 -20 -20 -20
22 4 20 31 24 22 20 21 11 8 15 21 21 24 28 30 31 28 14 8 8 11 13 10 8 10 4 4 -10 -20 -20 -20 -20 -20 -20 -20 -17 -13 -20 -20 -20 -20 -20
8 19 24 29 23 19 3 -6 -2 16 15 19 25 29 34 25 25 28 21 15 15 10 -6 7 6 7 6 -20 -20 -20 -20 -20 -20 -20 -20 -20 -20 -20 -20 -20 -20 -20 -20
16 4 15 25 22 21 21 13 24 18 18 25 26 26 22 21 17 14 7 -4 -9 -0 7 8 3 -19 -20 -20 -20 -20 -20 -20 -20 -20 -20 -20 -20 -20 -20 -20 -20 -20 -20
5 19 5 9 14 31 22 20 20 11 13 23 26 28 24 18 10 -2 -1 6 11 8 8 -9 -20 -20 -20 -20 -20 -20 -20 -20 -20 -20 -20 -20 -20 -20 -20 -10 -20 -20 -20
16 6 13 -3 8 13 17 22 18 20 26 24 11 -2 -5 0 -16 -13 -9 -8 -16 -20 -20 -20 -20 -20 -20 -20 -20 -20 -20 -20 -20 -20 -20 -20 -20 -17 -20 -20 -20 -20 -20
29 25 24 21 11 18 22 27 20 21 15 5 7 2 -8 -12 -3 0 -12 -20 -20 -20 -20 -20 -20 -20 -20 -20 -20 -20 -20 -20 -20 -20 -20 -20 -20 -20 -20 -20 -20 -20 -20
25 30 27 28 16 22 26 27 30 27 23 13 13 11 3 -20 -19 -18 -20 -20 -20 -20 -20 -20 -20 -20 -20 -20 -20 -20 -20 -20 -20 -20 -20 -20 -20 -20 -20 -1 -20 -20 -20
20 25 30 29 24 26 21 26 34 26 27 21 4 -6 -15 -14 -19 -12 -7 -17 -20 -20 -20 -20 -20 -20 -20 -20 -20 -20 -20 -16 -20 -20 -20 -20 -20 -20 -20 -18 -20 -20 -20
-8 23 19 24 23 20 25 17 10 26 -1 -6 4 6 -7 -20 -20 -20 -20 -20 -20 -20 -20 -20 -20 -20 -20 -20 -20 -20 -20 -20 -20 -20 -20 -3 -20 -20 -19 -20 -20 -20 -20
22 18 6 23 23 23 19 10 6 8 13 9 2 -17 -20 -20 -20 -20 -20 -20 -20 -20 -20 -20 -20 -20 -20 -20 -20 -20 -20 -20 -20 -20 -20 -20 -20 -19 -20 -20 -20 -20 -20
21 22 8 19 16 18 16 12 4 -0 0 -16 -14 -14 -20 -20 -20 -20 -20 -20 -20 -20 -20 -20 -20 -20 -20 -20 -20 -20 -20 -20 -20 -20 -20 -20 -19 -20 -20 -20 -20 -20 -16
22 28 28 14 15 10 2 -3 -7 -20 -20 -20 -9 -18 -20 -20 -20 -20 -20 -20 -20 -20 -20 -20 -20 -20 -20 -20 -20 -20 -20 -20 -20 -20 -20 -20 -20 -20 -20 -20 -20 -20 -20
25 18 24 16 -20 -20 -20 -20 -20 -20 -13 -20 -20 -20 -20 -20 -20 -20 -20 -20 -20 -20 -20 -20 -20 -20 -20 -20 -20 -20 -20 -16 -20 -20 -20 -20 -20 -20 -20 -20 -20 -20 -20
21 7 6 8 -1 -10 -19 -20 -14 -16 -20 -20 -20 -20 -20 -20 -20 -20 -20 -20 -20 -20 -20 -20 -20 -20 -20 -20 -20 -20 -20 -20 -20 -20 -20 -20 -20 -20 -20 -20 -20 -20 -20
28 15 5 -2 -11 -16 -20 2 -20 -20 -20 -20 -20 -20 -20 -20 -20 -20 -20 -20 -20 -20 -20 -20 -20 -20 -20 -20 -20 -20 -20 -20 -20 -20 -20 -20 -20 -20 -20 -20 -20 -20 -20
31 18 16 12 8 2 9 6 -7 -11 -15 -20 -20 -20 -20 -20 -20 -20 -20 -20 -20 -20 -20 -20 -20 -20 -20 -20 -20 -20 -20 -20 -20 -20 -20 -20 -20 -20 -20 -20 -20 -20 -20
33 20 18 14 16 9 8 -3 1 0 -3 -18 -20 -20 -20 -20 -20 -20 -20 -20 -20 -20 -20 -20 -20 -20 -20 -20 -20 -20 -20 -20 -15 -12 -20 -20 -20 -20 -20 -20 -20 -20 -20
22 23 20 18 14 17 9 4 -4 -16 -20 -20 -20 -20 -20 -20 -20 -20 -20 -20 -20 -20 -20 -20 -20 -20 -20 -20 -20 -20 -20 -19 -10 -4 -20 -20 -20 -20 -20 -20 -20 -20 -20
Wind_Speed
7 6 7 7 8 8 8 9 10 9 8 10 10 10 10 10 7 8 8 11 11 9 7 10 8 5 4 3 5 4 5 2 4 2 2 1 2 2 3 4 4 4 5
8 5 6 7 8 9 9 9 8 9 9 11 11 11 10 9 9 11 10 8 11 11 10 11 9 6 7 5 5 6 5 4 4 4 2 2 3 2 1 2 4 4 4
9 4 5 6 7 8 9 9 11 11 11 11 11 12 12 11 10 8 12 11 11 11 10 10 8 9 7 5 5 6 5 5 4 4 3 2 1 1 2 3 4 3 5
8 4 4 6 7 6 7 10 11 12 12 12 13 12 12 12 12 11 11 13 11 10 10 8 7 8 7 6 7 6 5 4 4 4 3 2 2 2 1 2 4 3 4
9 4 4 5 7 8 9 10 10 13 12 12 16 14 12 13 10 13 12 13 12 11 10 9 8 9 13 9 5 4 5 4 3 3 3 2 1 1 2 3 2 5 3
9 4 7 8 9 9 10 11 12 12 14 14 14 15 13 9 21 21 16 12 12 12 10 9 9 11 10 13 13 12 7 4 3 3 2 1 1 1 1 2 2 6 4
6 6 8 11 11 11 11 11 13 13 14 14 13 14 14 12 23 21 20 11 11 9 9 9 8 6 7 5 11 10 9 8 6 4 3 1 1 1 0 3 3 3 3
4 8 10 10 11 10 11 12 12 12 14 13 12 13 14 11 22 22 21 12 10 9 8 8 8 5 5 6 7 6 7 6 5 3 3 2 2 2 2 2 1 4 5
6 4 8 10 11 11 12 12 11 12 11 11 12 14 13 12 22 21 15 12 10 8 7 7 6 5 8 11 7 8 6 4 5 7 7 9 8 5 5 3 3 3 4
4 5 5 8 10 12 13 12 10 11 12 10 11 11 17 13 19 20 15 9 10 8 7 7 11 7 10 10 6 6 5 2 4 4 4 5 7 7 8 3 3 0 3
4 6 8 8 9 11 13 12 12 12 12 12 12 10 11 13 13 18 17 8 8 8 6 4 3 10 10 11 9 5 4 5 5 4 3 2 2 3 3 3 3 1 2
5 6 8 9 8 9 13 12 12 13 13 11 11 8 7 9 14 16 16 14 14 8 7 4 5 9 11 9 6 10 10 7 3 2 2 2 3 3 4 3 4 4 3
6 7 8 9 9 9 12 13 11 11 10 9 8 8 7 4 6 17 17 17 15 7 6 8 11 11 11 7 10 9 7 3 2 2 2 2 2 2 4 4 4 5 5
6 7 7 9 10 9 7 8 10 10 9 9 8 8 7 6 4 4 6 8 14 9 11 7 8 8 8 6 6 4 3 3 2 2 1 2 3 2 2 2 2 4 3
5 5 6 6 8 9 7 6 8 7 10 10 8 9 10 8 5 11 10 7 6 9 8 4 3 3 2 2 3 3 3 3 2 1 1 2 2 3 4 4 3 3 3
6 5 5 6 6 7 9 9 13 15 14 12 13 9 6 11 18 17 16 16 16 16 3 3 2 2 3 2 2 2 2 3 1 0 1 2 2 3 3 3 1 1 3
6 7 6 6 6 7 8 9 9 8 13 16 16 16 14 16 18 17 16 16 16 10 2 2 3 3 2 3 2 2 1 1 1 2 2 2 2 3 5 3 3 3 4
6 12 6 5 6 6 7 7 7 8 8 7 13 12 17 18 17 16 17 12 5 3 2 3 3 3 3 2 2 1 1 1 0 1 1 2 2 2 2 3 3 4 5
8 6 6 5 5 7 6 6 6 6 6 7 6 9 15 17 16 16 15 3 3 2 3 2 3 3 2 3 2 1 2 1 1 0 1 1 2 1 3 2 4 11 11
7 13 10 7 7 7 6 7 6 6 7 6 6 7 7 11 7 3 3 3 3 2 3 3 3 3 3 3 3 3 2 2 1 1 1 1 2 2 2 3 4 5 6
7 8 14 7 7 6 6 7 6 6 6 5 5 6 14 7 5 5 4 3 3 3 3 3 3 3 3 3 2 2 2 2 2 2 1 1 2 2 2 4 5 5 6
7 8 7 7 7 7 6 6 6 6 6 6 4 6 16 3 4 4 4 3 3 3 3 4 4 4 3 4 3 3 2 3 2 2 2 2 1 2 3 3 4 4 5
8 9 7 7 7 11 7 6 6 6 6 6 6 5 4 4 4 4 4 4 4 3 3 4 4 3 2 3 3 4 3 3 3 2 3 3 2 3 3 3 4 5 3
9 10 10 7 7 6 6 6 6 9 7 7 7 6 5 5 4 5 4 3 3 3 3 4 3 4 3 2 2 2 3 3 3 3 4 3 3 5 3 3 5 5 4
9 9 9 9 8 7 7 6 6 6 6 6 5 4 4 4 4 3 3 3 3 3 3 2 2 3 4 4 4 4 4 7 5 6 4 4 5 6 5 4 5 5 4
8 9 8 8 7 7 7 6 6 6 6 5 4 4 5 4 4 4 4 4 3 3 4 3 4 5 5 4 5 7 8 8 6 9 5 4 4 4 4 5 7 4 4
Wind_Direction
255 219 204 196 194 186 188 188 189 178 163 155 148 141 135 126 121 118 128 131 124 123 121 113 99 95 84 75 74 68 64 74 105 86 85 85 74 52 26 6 351 344 347
290 223 208 192 188 188 190 187 164 142 147 143 138 127 124 118 122 126 127 125 129 125 114 104 108 102 76 59 72 79 76 47 118 126 112 76 73 35 312 342 346 335 310
300 221 198 184 184 191 182 162 144 136 130 124 122 122 117 117 115 124 123 117 117 114 113 107 114 110 103 95 87 84 65 61 59 106 106 60 106 19 348 346 297 287 329
296 211 190 181 182 171 139 142 138 133 128 126 117 105 112 119 115 113 118 108 101 96 97 104 104 98 116 117 89 94 95 84 82 91 92 112 69 15 309 297 327 329 329
304 202 178 108 106 118 120 120 123 121 113 115 111 113 111 103 119 123 113 110 108 98 93 94 89 109 106 106 113 111 105 94 91 93 79 62 53 358 2 318 307 323 314
297 176 123 115 109 105 112 117 112 110 115 107 103 111 118 111 124 120 118 114 110 109 106 105 110 98 116 114 109 105 114 121 97 110 133 136 153 152 310 335 321 347 342
286 130 119 120 117 114 110 105 116 115 110 114 121 125 112 127 129 123 117 109 104 109 117 108 102 98 87 101 120 95 99 113 108 122 125 140 201 177 52 324 340 330 279
1 123 129 130 122 126 116 120 115 115 123 127 126 121 118 127 131 126 118 120 111 96 102 101 107 114 144 118 103 100 78 72 90 94 106 177 213 132 97 45 317 291 281
22 84 128 130 127 126 120 117 121 119 119 126 126 122 122 123 132 132 123 92 104 113 118 119 122 121 139 141 119 104 95 58 58 81 86 68 55 52 66 43 1 5 322
35 75 97 124 130 128 120 123 120 118 119 119 115 115 126 126 131 120 110 123 127 123 126 129 132 134 132 129 114 124 126 122 97 72 52 56 52 28 22 19 328 254 298
43 85 101 105 111 120 121 122 119 119 112 112 110 111 116 113 124 137 140 134 137 133 130 125 123 125 122 115 115 123 127 113 89 94 92 75 54 36 353 337 329 300 301
53 79 95 110 115 121 121 119 120 120 116 114 111 103 107 123 143 147 147 141 143 136 136 112 113 131 123 121 122 114 111 105 118 115 83 38 358 347 334 305 297 303 267
73 84 94 103 110 120 127 125 122 122 121 119 118 118 121 120 141 152 148 145 139 107 104 133 143 141 129 118 111 107 112 113 92 56 44 360 323 294 283 296 309 322 298
76 86 103 112 111 110 114 126 127 128 127 123 125 133 137 132 125 125 131 126 123 119 143 130 125 124 122 110 91 97 101 100 100 95 232 258 271 294 320 331 330 336 324
97 92 92 104 110 105 89 112 123 117 135 139 150 151 149 147 150 134 131 125 128 138 117 87 91 86 102 104 86 80 81 90 111 195 245 296 336 351 345 336 350 335 329
121 108 106 109 115 115 113 101 98 116 132 139 142 141 133 138 142 142 143 144 146 143 113 119 109 118 123 115 126 137 130 133 130 22 346 359 350 341 324 349 324 293 306
145 133 121 117 121 121 121 120 124 129 135 145 145 143 143 148 148 146 146 151 153 140 112 120 131 140 147 152 142 137 156 124 47 15 357 331 333 328 350 321 320 310 303
137 144 133 128 121 117 115 121 126 134 139 145 150 146 151 150 150 152 155 144 141 128 104 135 153 158 147 141 149 145 145 69 331 328 339 326 321 306 330 324 317 301 295
147 145 136 122 118 123 123 123 124 130 131 130 126 140 153 153 153 157 148 111 125 135 135 142 146 143 153 160 173 171 152 192 193 155 317 306 304 293 302 299 308 329 335
149 156 145 138 139 138 135 131 127 127 132 140 142 148 147 148 157 133 116 129 138 148 145 141 151 153 164 172 192 180 188 191 191 249 290 280 290 286 301 303 304 307 308
149 156 153 139 139 139 139 139 137 141 143 145 147 161 164 154 149 152 151 150 153 153 161 161 161 168 175 176 186 177 192 207 185 217 238 258 281 285 288 296 295 294 298
151 153 152 147 140 138 136 132 138 142 144 146 139 164 169 118 141 151 147 152 168 174 168 160 170 179 194 174 178 182 216 217 214 212 233 251 275 284 287 274 292 287 288
148 148 144 140 141 144 143 148 151 150 146 141 147 161 148 156 161 155 163 168 167 167 164 164 172 198 205 185 173 177 193 222 207 197 208 236 257 274 271 270 286 293 275
153 152 151 145 143 145 151 160 154 158 152 154 162 165 153 154 159 172 172 163 164 172 167 173 178 191 189 207 207 201 206 216 208 220 202 198 245 289 278 267 283 282 287
147 150 151 151 159 149 151 148 148 149 151 158 160 149 142 140 142 150 158 162 155 150 171 159 162 201 212 226 237 243 245 253 230 217 220 204 241 266 263 268 281 281 283
140 141 139 137 138 141 145 147 146 142 142 138 133 136 142 146 150 149 156 152 148 165 173 177 199 208 210 219 229 229 238 248 260 258 227 234 238 267 268 268 278 275 278